User: anonymous   Login
Location: Unspecified
(42.0334°N, 93.6656°W)
Time: 15:20:33
(UTC-05:00)
Language:

Iridium 63 - Orbit

View from above orbital plane
View from above orbital plane
View from above satellite
View from above satellite

Ground track
Ground track

The orbit data is extracted from the following two-line orbital elements,

1 25286U 98021B   15244.28470771  .00000169  00000-0  52966-4 0  9993
2 25286  86.4024 138.0644 0002370  82.1357  37.7241 14.34495069911159
Epoch (UTC): 01 September 2015 06:49:58
Eccentricity: 0.0002370
inclination: 86.4024°
perigee height: 775 km
apogee height: 778 km
right ascension of ascending node: 138.0644°
argument of perigee: 82.1357°
revolutions per day: 14.34495069
mean anomaly at epoch: 37.7241°
orbit number at epoch: 91115

The dashed part of the orbit path shows where the satellite is in the earth's shadow,  

DLR